EZY76FD EGCC-EGHQ

Flight info

Callsign EZY76FD
Flight time 0h 44m
Altitude 23000
Route ASMIM DCT NOKIN P17 ZESPE/N0364F220 N92 EXMOR
Aircraft A320/M-SDE3FGHIRWY/LB1

Departure

Time 2026-04-20 14:58
Airport Manchester Airport (EGCC)

Arrival

Time 2026-04-20 15:42
Airport Cornwall Airport Newquay (EGHQ)
Time Latitude Longitude Altitude Speed Heading
2026-04-20 14:37 53.36552 -2.28578 233 ft 0 kts 42°
2026-04-20 14:49 53.36545 -2.28588 234 ft 4 kts 46°
2026-04-20 14:49 53.36530 -2.28623 233 ft 4 kts 75°
2026-04-20 14:49 53.36530 -2.28663 233 ft 3 kts 128°
2026-04-20 14:49 53.36536 -2.28675 236 ft 0 kts 134°
2026-04-20 14:52 53.36536 -2.28674 236 ft 0 kts 134°
2026-04-20 14:52 53.36519 -2.28644 237 ft 8 kts 133°
2026-04-20 14:52 53.36461 -2.28545 233 ft 15 kts 134°
2026-04-20 14:52 53.36360 -2.28509 233 ft 16 kts 169°
2026-04-20 14:53 53.36271 -2.28379 233 ft 18 kts 134°
2026-04-20 14:53 53.36181 -2.28222 233 ft 17 kts 134°
2026-04-20 14:53 53.36193 -2.28136 233 ft 8 kts 46°
2026-04-20 14:53 53.36176 -2.28034 234 ft 13 kts 135°
2026-04-20 14:54 53.36107 -2.27915 233 ft 14 kts 134°
2026-04-20 14:54 53.36046 -2.27914 234 ft 9 kts 223°
2026-04-20 14:54 53.35997 -2.27907 234 ft 8 kts 140°
2026-04-20 14:54 53.35920 -2.27852 233 ft 16 kts 175°
2026-04-20 14:55 53.35794 -2.27869 233 ft 19 kts 186°
2026-04-20 14:55 53.35653 -2.27892 233 ft 21 kts 188°
2026-04-20 14:55 53.35569 -2.28021 233 ft 17 kts 232°
2026-04-20 14:55 53.35475 -2.28139 233 ft 17 kts 201°
2026-04-20 14:56 53.35350 -2.28182 233 ft 19 kts 197°
2026-04-20 14:56 53.35231 -2.28303 233 ft 21 kts 225°
2026-04-20 14:56 53.35135 -2.28505 233 ft 23 kts 232°
2026-04-20 14:56 53.35038 -2.28699 233 ft 21 kts 229°
2026-04-20 14:57 53.34945 -2.28714 234 ft 15 kts 143°
2026-04-20 14:57 53.34865 -2.28601 234 ft 12 kts 126°
2026-04-20 14:57 53.34917 -2.28441 235 ft 35 kts 51°
2026-04-20 14:57 53.35243 -2.27770 231 ft 110 kts 51°
2026-04-20 14:58 53.35831 -2.26551 408 ft 145 kts 52°
2026-04-20 14:58 53.36467 -2.25228 1067 ft 148 kts 52°
2026-04-20 14:58 53.37124 -2.23869 1785 ft 151 kts 52°
2026-04-20 14:58 53.37806 -2.22466 2388 ft 164 kts 53°
2026-04-20 14:59 53.38696 -2.21078 2826 ft 189 kts 31°
2026-04-20 14:59 53.40055 -2.20537 3200 ft 218 kts 356°
2026-04-20 14:59 53.41533 -2.21489 3698 ft 245 kts 320°
2026-04-20 14:59 53.42471 -2.23940 4302 ft 265 kts 287°
2026-04-20 15:00 53.42955 -2.26957 5252 ft 271 kts 287°
2026-04-20 15:00 53.43536 -2.29986 6250 ft 275 kts 280°
2026-04-20 15:00 53.43365 -2.33164 7148 ft 279 kts 248°
2026-04-20 15:00 53.42301 -2.35869 8044 ft 281 kts 223°
2026-04-20 15:01 53.40664 -2.37648 8953 ft 283 kts 199°
2026-04-20 15:01 53.38770 -2.38629 9885 ft 287 kts 195°
2026-04-20 15:01 53.36827 -2.39574 10609 ft 299 kts 195°
2026-04-20 15:01 53.34747 -2.40574 10933 ft 322 kts 195°
2026-04-20 15:02 53.32550 -2.41630 11541 ft 333 kts 196°
2026-04-20 15:02 53.30306 -2.42714 12330 ft 338 kts 196°
2026-04-20 15:02 53.28029 -2.43817 13140 ft 342 kts 197°
2026-04-20 15:02 53.25733 -2.44933 13954 ft 345 kts 197°
2026-04-20 15:03 53.23442 -2.46047 14676 ft 349 kts 197°
2026-04-20 15:03 53.21102 -2.47188 15383 ft 352 kts 198°
2026-04-20 15:03 53.18735 -2.48339 16079 ft 356 kts 198°
2026-04-20 15:03 53.16342 -2.49499 16769 ft 360 kts 198°
2026-04-20 15:04 53.13921 -2.50670 17449 ft 364 kts 198°
2026-04-20 15:04 53.11476 -2.51851 18131 ft 368 kts 198°
2026-04-20 15:04 53.09006 -2.53041 18769 ft 372 kts 198°
2026-04-20 15:04 53.06509 -2.54241 19350 ft 375 kts 199°
2026-04-20 15:05 53.03990 -2.55451 19937 ft 379 kts 199°
2026-04-20 15:05 53.01445 -2.56671 20527 ft 382 kts 199°
2026-04-20 15:05 52.98877 -2.57903 21114 ft 386 kts 199°
2026-04-20 15:05 52.96285 -2.59144 21700 ft 389 kts 200°
2026-04-20 15:06 52.93710 -2.60377 22288 ft 393 kts 200°
2026-04-20 15:06 52.91070 -2.61641 22880 ft 396 kts 201°
2026-04-20 15:06 52.88412 -2.62913 23215 ft 399 kts 201°
2026-04-20 15:06 52.85772 -2.64166 23269 ft 389 kts 201°
2026-04-20 15:07 52.83185 -2.65384 23272 ft 384 kts 202°
2026-04-20 15:07 52.80623 -2.66595 23277 ft 382 kts 202°
2026-04-20 15:07 52.78069 -2.67809 23271 ft 382 kts 202°
2026-04-20 15:07 52.75510 -2.69028 23275 ft 382 kts 202°
2026-04-20 15:08 52.72957 -2.70243 23273 ft 382 kts 202°
2026-04-20 15:08 52.70436 -2.71439 23272 ft 382 kts 203°
2026-04-20 15:08 52.67882 -2.72646 23276 ft 382 kts 203°
2026-04-20 15:08 52.65323 -2.73850 23275 ft 382 kts 203°
2026-04-20 15:09 52.62764 -2.75052 23272 ft 383 kts 202°
2026-04-20 15:09 52.60122 -2.75869 23271 ft 391 kts 192°
2026-04-20 15:09 52.57396 -2.76135 23270 ft 393 kts 190°
2026-04-20 15:09 52.54658 -2.76368 23265 ft 393 kts 190°
2026-04-20 15:10 52.51930 -2.76597 23265 ft 393 kts 190°
2026-04-20 15:10 52.49197 -2.76829 23261 ft 393 kts 190°
2026-04-20 15:10 52.46467 -2.77067 23264 ft 393 kts 191°
2026-04-20 15:10 52.43736 -2.77306 23260 ft 393 kts 191°
2026-04-20 15:11 52.40999 -2.77541 23257 ft 393 kts 191°
2026-04-20 15:11 52.38302 -2.77772 23254 ft 393 kts 191°
2026-04-20 15:11 52.35567 -2.78005 23256 ft 394 kts 191°
2026-04-20 15:11 52.32829 -2.78236 23257 ft 394 kts 191°
2026-04-20 15:12 52.30097 -2.78470 23252 ft 394 kts 191°
2026-04-20 15:12 52.27359 -2.78708 23254 ft 394 kts 191°
2026-04-20 15:12 52.24623 -2.78944 23253 ft 394 kts 191°
2026-04-20 15:12 52.21881 -2.79176 23250 ft 394 kts 191°
2026-04-20 15:13 52.19143 -2.79407 23251 ft 394 kts 191°
2026-04-20 15:13 52.16407 -2.79638 23256 ft 394 kts 191°
2026-04-20 15:13 52.13664 -2.79871 23250 ft 394 kts 191°
2026-04-20 15:13 52.10926 -2.80104 23247 ft 394 kts 191°
2026-04-20 15:14 52.08185 -2.80342 23248 ft 394 kts 191°
2026-04-20 15:14 52.05450 -2.80581 23253 ft 394 kts 191°
2026-04-20 15:14 52.02708 -2.80822 23269 ft 394 kts 191°
2026-04-20 15:14 51.99970 -2.81060 23268 ft 394 kts 191°
2026-04-20 15:15 51.97235 -2.81291 23277 ft 394 kts 191°
2026-04-20 15:15 51.94494 -2.81518 23288 ft 394 kts 191°
2026-04-20 15:15 51.91752 -2.81744 23288 ft 394 kts 190°
2026-04-20 15:15 51.89015 -2.81972 23288 ft 394 kts 191°
2026-04-20 15:16 51.86277 -2.82202 23293 ft 394 kts 191°
2026-04-20 15:16 51.83581 -2.82527 23300 ft 392 kts 193°
2026-04-20 15:16 51.80882 -2.83032 23306 ft 390 kts 195°
2026-04-20 15:16 51.78196 -2.83645 23309 ft 389 kts 196°
2026-04-20 15:17 51.75518 -2.84299 23309 ft 389 kts 196°
2026-04-20 15:17 51.72841 -2.84945 23310 ft 389 kts 196°
2026-04-20 15:17 51.70158 -2.85566 23310 ft 390 kts 196°
2026-04-20 15:17 51.67472 -2.86162 23316 ft 390 kts 195°
2026-04-20 15:18 51.64784 -2.86737 23317 ft 390 kts 195°
2026-04-20 15:18 51.62089 -2.87306 23308 ft 390 kts 195°
2026-04-20 15:18 51.59401 -2.87871 23302 ft 389 kts 195°
2026-04-20 15:18 51.56788 -2.88783 23287 ft 380 kts 206°
2026-04-20 15:19 51.54379 -2.90385 23283 ft 370 kts 216°
2026-04-20 15:19 51.52239 -2.92579 23231 ft 361 kts 226°
2026-04-20 15:19 51.50284 -2.95088 23233 ft 360 kts 226°
2026-04-20 15:19 51.48324 -2.97592 23233 ft 360 kts 226°
2026-04-20 15:20 51.46381 -3.00061 23223 ft 360 kts 226°
2026-04-20 15:20 51.44415 -3.02551 23228 ft 360 kts 226°
2026-04-20 15:20 51.42445 -3.05042 23242 ft 360 kts 226°
2026-04-20 15:20 51.40473 -3.07532 23249 ft 360 kts 225°
2026-04-20 15:21 51.38502 -3.10019 23249 ft 360 kts 225°
2026-04-20 15:21 51.36532 -3.12505 23252 ft 360 kts 225°
2026-04-20 15:21 51.34566 -3.14991 23247 ft 360 kts 225°
2026-04-20 15:21 51.32600 -3.17478 23254 ft 360 kts 225°
2026-04-20 15:22 51.30631 -3.19960 23253 ft 361 kts 225°
2026-04-20 15:22 51.28657 -3.22440 23255 ft 361 kts 225°
2026-04-20 15:22 51.26686 -3.24912 23251 ft 361 kts 225°
2026-04-20 15:22 51.24711 -3.27385 23248 ft 361 kts 225°
2026-04-20 15:23 51.22735 -3.29857 23246 ft 361 kts 225°
2026-04-20 15:23 51.20760 -3.32333 23244 ft 361 kts 225°
2026-04-20 15:23 51.18795 -3.34822 23241 ft 360 kts 227°
2026-04-20 15:23 51.17152 -3.37740 23235 ft 349 kts 242°
2026-04-20 15:24 51.15959 -3.41072 23236 ft 345 kts 247°
2026-04-20 15:24 51.14833 -3.44406 23223 ft 346 kts 246°
2026-04-20 15:24 51.13666 -3.47755 23117 ft 344 kts 246°
2026-04-20 15:24 51.12498 -3.51027 22835 ft 337 kts 245°
2026-04-20 15:25 51.11336 -3.54235 22564 ft 333 kts 245°
2026-04-20 15:25 51.10177 -3.57427 22288 ft 332 kts 245°
2026-04-20 15:25 51.09026 -3.60603 22010 ft 331 kts 245°
2026-04-20 15:25 51.07880 -3.63776 21735 ft 330 kts 245°
2026-04-20 15:26 51.06736 -3.66942 21479 ft 330 kts 245°
2026-04-20 15:26 51.05592 -3.70100 21218 ft 329 kts 245°
2026-04-20 15:26 51.04449 -3.73253 20955 ft 329 kts 245°
2026-04-20 15:26 51.03309 -3.76396 20700 ft 328 kts 245°
2026-04-20 15:27 51.02172 -3.79528 20445 ft 327 kts 244°
2026-04-20 15:27 51.01033 -3.82658 20189 ft 327 kts 244°
2026-04-20 15:27 50.99898 -3.85778 19938 ft 326 kts 244°
2026-04-20 15:27 50.98765 -3.88889 19689 ft 325 kts 244°
2026-04-20 15:28 50.97634 -3.91993 19442 ft 325 kts 244°
2026-04-20 15:28 50.96503 -3.95093 19201 ft 324 kts 244°
2026-04-20 15:28 50.95373 -3.98185 18955 ft 324 kts 244°
2026-04-20 15:28 50.94257 -4.01226 18720 ft 322 kts 243°
2026-04-20 15:29 50.93137 -4.04274 18376 ft 318 kts 243°
2026-04-20 15:29 50.92029 -4.07295 17962 ft 316 kts 243°
2026-04-20 15:29 50.90925 -4.10295 17557 ft 314 kts 243°
2026-04-20 15:29 50.89831 -4.13275 17162 ft 312 kts 243°
2026-04-20 15:30 50.88743 -4.16236 16775 ft 310 kts 243°
2026-04-20 15:30 50.87658 -4.19179 16386 ft 309 kts 243°
2026-04-20 15:30 50.86576 -4.22117 16000 ft 309 kts 243°
2026-04-20 15:30 50.85494 -4.25045 15617 ft 308 kts 242°
2026-04-20 15:31 50.84411 -4.27967 15230 ft 307 kts 242°
2026-04-20 15:31 50.83328 -4.30887 14845 ft 307 kts 242°
2026-04-20 15:31 50.82245 -4.33808 14462 ft 307 kts 242°
2026-04-20 15:31 50.81163 -4.36722 14074 ft 308 kts 242°
2026-04-20 15:32 50.80080 -4.39645 13651 ft 308 kts 242°
2026-04-20 15:32 50.78999 -4.42558 13260 ft 307 kts 242°
2026-04-20 15:32 50.77922 -4.45458 12864 ft 305 kts 242°
2026-04-20 15:32 50.76848 -4.48346 12468 ft 304 kts 241°
2026-04-20 15:33 50.75773 -4.51229 12069 ft 304 kts 240°
2026-04-20 15:33 50.74701 -4.54097 11661 ft 303 kts 240°
2026-04-20 15:33 50.73640 -4.56927 11272 ft 303 kts 240°
2026-04-20 15:33 50.72566 -4.59786 10863 ft 302 kts 240°
2026-04-20 15:34 50.71497 -4.62629 10455 ft 301 kts 239°
2026-04-20 15:34 50.70437 -4.65447 10217 ft 294 kts 239°
2026-04-20 15:34 50.69400 -4.68202 9874 ft 291 kts 239°
2026-04-20 15:34 50.68368 -4.70952 9478 ft 289 kts 239°
2026-04-20 15:35 50.67336 -4.73700 8942 ft 292 kts 239°
2026-04-20 15:35 50.66311 -4.76424 8621 ft 287 kts 239°
2026-04-20 15:35 50.65291 -4.79123 8207 ft 286 kts 238°
2026-04-20 15:35 50.64275 -4.81813 7776 ft 285 kts 238°
2026-04-20 15:36 50.63267 -4.84485 7352 ft 283 kts 238°
2026-04-20 15:36 50.62260 -4.87148 6936 ft 282 kts 238°
2026-04-20 15:36 50.61256 -4.89797 6519 ft 281 kts 237°
2026-04-20 15:36 50.60254 -4.92437 6045 ft 281 kts 237°
2026-04-20 15:37 50.59250 -4.95078 5557 ft 281 kts 237°
2026-04-20 15:37 50.58258 -4.97689 5111 ft 281 kts 237°
2026-04-20 15:37 50.57245 -5.00348 4411 ft 288 kts 237°
2026-04-20 15:37 50.56194 -5.03098 3640 ft 298 kts 237°
2026-04-20 15:38 50.55129 -5.05894 3167 ft 295 kts 237°
2026-04-20 15:38 50.54101 -5.08597 2984 ft 277 kts 237°
2026-04-20 15:38 50.53158 -5.11071 2864 ft 251 kts 234°
2026-04-20 15:38 50.52010 -5.12867 2758 ft 220 kts 201°
2026-04-20 15:39 50.50631 -5.13352 2666 ft 192 kts 171°
2026-04-20 15:39 50.49437 -5.12811 2489 ft 171 kts 146°
2026-04-20 15:39 50.48619 -5.11630 2258 ft 152 kts 122°
2026-04-20 15:39 50.48082 -5.10220 1791 ft 148 kts 120°
2026-04-20 15:40 50.47590 -5.08902 1548 ft 133 kts 117°
2026-04-20 15:40 50.47140 -5.07695 1320 ft 124 kts 120°
2026-04-20 15:40 50.46712 -5.06561 1124 ft 121 kts 118°
2026-04-20 15:40 50.46294 -5.05420 960 ft 120 kts 120°
2026-04-20 15:41 50.45869 -5.04292 784 ft 119 kts 122°
2026-04-20 15:41 50.45445 -5.03170 618 ft 119 kts 122°
2026-04-20 15:41 50.45024 -5.02045 476 ft 120 kts 122°
2026-04-20 15:41 50.44599 -5.00921 339 ft 119 kts 121°
2026-04-20 15:42 50.44243 -4.99973 349 ft 67 kts 122°
2026-04-20 15:42 50.44130 -4.99671 348 ft 14 kts 120°
2026-04-20 15:42 50.44087 -4.99540 349 ft 12 kts 95°
2026-04-20 15:42 50.44134 -4.99497 349 ft 8 kts
2026-04-20 15:43 50.44212 -4.99485 358 ft 14 kts
2026-04-20 15:43 50.44281 -4.99534 356 ft 11 kts 302°
2026-04-20 15:43 50.44322 -4.99641 357 ft 12 kts 300°
2026-04-20 15:43 50.44353 -4.99725 350 ft 14 kts 299°
2026-04-20 15:44 50.44426 -4.99927 349 ft 17 kts 302°
2026-04-20 15:44 50.44488 -5.00083 345 ft 17 kts 301°
2026-04-20 15:44 50.44551 -5.00250 335 ft 19 kts 299°
2026-04-20 15:44 50.44603 -5.00390 333 ft 12 kts 300°
2026-04-20 15:45 50.44638 -5.00442 333 ft 3 kts
2026-04-20 15:45 50.44642 -5.00438 334 ft 0 kts 25°
2026-04-20 15:45 50.44644 -5.00434 334 ft 1 kts 38°
2026-04-20 15:45 50.44651 -5.00420 333 ft 1 kts 55°
2026-04-20 15:46 50.44655 -5.00402 336 ft 2 kts 74°
2026-04-20 15:46 50.44655 -5.00390 336 ft 3 kts 83°
2026-04-20 15:46 50.44656 -5.00369 334 ft 1 kts 88°
2026-04-20 15:46 50.44656 -5.00366 334 ft 0 kts 86°